Hourly Data Report for August 02, 2004

TORONTO CITY
ONTARIO

43°40'00.000" N
79°24'00.000" W
112.50 m
6158355
71508
XTO

Download Data

Hourly Data (August 2004)
Hourly Data Report for August 2, 2004
TIME
LST
Temp Definition
°C
Dew Point Definition
°C
Rel Hum Definition
%
Precip. Amount Definition
mm

Wind Dir Definition
10's deg

Wind Spd Definition
km/h
Visibility Definition
km
Stn Press Definition
kPa
Hmdx Definition


Wind Chill Definition


Weather Definition


00:00 20.1 19.0 93   LegendMM LegendMM LegendMM 100.32 27   LegendNANA
01:00 19.7 18.4 92   LegendMM LegendMM LegendMM 100.31     LegendNANA
02:00 19.4 17.1 87   LegendMM LegendMM LegendMM 100.31     LegendNANA
03:00 19.1 16.8 87   LegendMM LegendMM LegendMM 100.26     LegendNANA
04:00 18.7 16.6 88   LegendMM LegendMM LegendMM 100.25     LegendNANA
05:00 19.0 17.1 89   LegendMM LegendMM LegendMM 100.26     LegendNANA
06:00 19.6 18.4 93   LegendMM LegendMM LegendMM 100.28     LegendNANA
07:00 20.8 18.9 89   LegendMM LegendMM LegendMM 100.28 27   LegendNANA
08:00 22.0 18.7 82   LegendMM LegendMM LegendMM 100.28 29   LegendNANA
09:00 22.8 18.7 78   LegendMM LegendMM LegendMM 100.24 29   LegendNANA
10:00 24.3 19.0 72   LegendMM LegendMM LegendMM 100.20 31   LegendNANA
11:00 25.8 19.4 68   LegendMM LegendMM LegendMM 100.15 33   LegendNANA
12:00 26.8 19.8 66   LegendMM LegendMM LegendMM 100.10 34   LegendNANA
13:00 27.2 20.4 66   LegendMM LegendMM LegendMM 100.06 35   LegendNANA
14:00 27.4 19.5 62   LegendMM LegendMM LegendMM 100.00 35   LegendNANA
15:00 27.9 20.3 63   LegendMM LegendMM LegendMM 99.97 36   LegendNANA
16:00 28.0 19.0 58   LegendMM LegendMM LegendMM 99.89 35   LegendNANA
17:00 27.1 19.3 62   LegendMM LegendMM LegendMM 99.84 34   LegendNANA
18:00 26.1 19.6 67   LegendMM LegendMM LegendMM 99.82 33   LegendNANA
19:00 25.2 19.5 71   LegendMM LegendMM LegendMM 99.81 32   LegendNANA
20:00 24.8 19.3 72   LegendMM LegendMM LegendMM 99.82 32   LegendNANA
21:00 24.2 19.9 77   LegendMM LegendMM LegendMM 99.85 32   LegendNANA
22:00 24.9 17.9 65   LegendMM LegendMM LegendMM 99.88 31   LegendNANA
23:00 21.7 17.2 76   LegendMM LegendMM LegendMM 99.71 27   LegendNANA

Notes on Data Quality.

Legend

  • E = Estimated
  • M = Missing
  • NA = Not Available*
  • [empty] = Indicates an unobserved value
Date modified: